,,PressureMeas_1m,,PRMeasQMR101_1,,RHStat155_1m_1,,SRMeasQMS101R_1m,,TAStat155_1m_1,,GenWind_1,,GenWind_1,
2018-10-29, 00:00:06,VALID,917.793,VALID,0.0,VALID,97.358,VALID,-0.008,VALID,20.104,VALID,60.0,VALID,0.0,
2018-10-29, 00:01:06,VALID,917.799,VALID,0.0,VALID,97.611,VALID,-0.019,VALID,20.119,VALID,54.0,VALID,0.0,
2018-10-29, 00:02:06,VALID,917.792,VALID,0.0,VALID,97.701,VALID,-0.012,VALID,20.121,VALID,48.0,VALID,0.0,
2018-10-29, 00:03:06,VALID,917.792,VALID,0.0,VALID,97.727,VALID,-0.025,VALID,20.112,VALID,72.0,VALID,0.0,
2018-10-29, 00:04:06,VALID,917.78,VALID,0.0,VALID,97.805,VALID,-0.015,VALID,20.116,VALID,65.0,VALID,0.0,
2018-10-29, 00:05:06,VALID,917.773,VALID,0.0,VALID,97.89,VALID,0.003,VALID,20.134,VALID,67.0,VALID,0.0,
2018-10-29, 00:06:06,VALID,917.776,VALID,0.0,VALID,97.836,VALID,0.028,VALID,20.127,VALID,77.0,VALID,0.0,
2018-10-29, 00:07:06,VALID,917.788,VALID,0.0,VALID,97.833,VALID,0.034,VALID,20.125,VALID,90.0,VALID,0.0,
2018-10-29, 00:08:06,VALID,917.764,VALID,0.0,VALID,97.787,VALID,0.041,VALID,20.103,VALID,104.0,VALID,0.0,
2018-10-29, 00:09:06,VALID,917.788,VALID,0.0,VALID,97.697,VALID,-0.035,VALID,20.065,VALID,112.0,VALID,0.0,
2018-10-29, 00:10:06,VALID,917.758,VALID,0.0,VALID,97.661,VALID,-0.021,VALID,20.036,VALID,118.0,VALID,0.0,
2018-10-29, 00:11:06,VALID,917.748,VALID,0.0,VALID,97.727,VALID,-0.014,VALID,20.021,VALID,128.0,VALID,0.0,
2018-10-29, 00:12:06,VALID,917.748,VALID,0.0,VALID,97.747,VALID,-0.024,VALID,20.01,VALID,149.0,VALID,0.0,
2018-10-29, 00:13:06,VALID,917.744,VALID,0.0,VALID,97.825,VALID,-0.024,VALID,20.021,VALID,153.0,VALID,0.0,
2018-10-29, 00:14:06,VALID,917.754,VALID,0.0,VALID,97.952,VALID,-0.018,VALID,20.057,VALID,158.0,VALID,0.0,
2018-10-29, 00:15:06,VALID,917.745,VALID,0.0,VALID,98.047,VALID,-0.023,VALID,20.065,VALID,158.0,VALID,0.0,
2018-10-29, 00:16:06,VALID,917.744,VALID,0.0,VALID,98.09,VALID,-0.018,VALID,20.056,VALID,158.0,VALID,0.0,
2018-10-29, 00:17:06,VALID,917.754,VALID,0.0,VALID,98.133,VALID,-0.014,VALID,20.044,VALID,158.0,VALID,0.0,
2018-10-29, 00:18:06,VALID,917.756,VALID,0.0,VALID,98.1,VALID,-0.024,VALID,20.007,VALID,158.0,VALID,0.0,
2018-10-29, 00:19:06,VALID,917.762,VALID,0.0,VALID,97.971,VALID,-0.022,VALID,19.935,VALID,158.0,VALID,0.0,
2018-10-29, 00:20:06,VALID,917.765,VALID,0.0,VALID,98.02,VALID,-0.036,VALID,19.916,VALID,157.0,VALID,0.0,
2018-10-29, 00:21:06,VALID,917.755,VALID,0.0,VALID,98.062,VALID,-0.031,VALID,19.897,VALID,157.0,VALID,0.0,
2018-10-29, 00:22:06,VALID,917.754,VALID,0.0,VALID,98.074,VALID,-0.039,VALID,19.882,VALID,157.0,VALID,0.0,
2018-10-29, 00:23:06,VALID,917.766,VALID,0.0,VALID,98.113,VALID,-0.023,VALID,19.87,VALID,157.0,VALID,0.0,
2018-10-29, 00:24:06,VALID,917.771,VALID,0.0,VALID,98.079,VALID,-0.017,VALID,19.849,VALID,157.0,VALID,0.0,
2018-10-29, 00:25:06,VALID,917.761,VALID,0.0,VALID,98.061,VALID,-0.028,VALID,19.83,VALID,156.0,VALID,0.0,
2018-10-29, 00:26:06,VALID,917.751,VALID,0.0,VALID,98.05,VALID,-0.028,VALID,19.821,VALID,156.0,VALID,0.0,
2018-10-29, 00:27:06,VALID,917.75,VALID,0.0,VALID,98.157,VALID,-0.013,VALID,19.861,VALID,156.0,VALID,0.0,
2018-10-29, 00:28:06,VALID,917.737,VALID,0.0,VALID,98.259,VALID,-0.03,VALID,19.89,VALID,156.0,VALID,0.0,
2018-10-29, 00:29:06,VALID,917.743,VALID,0.0,VALID,98.29,VALID,-0.028,VALID,19.895,VALID,156.0,VALID,0.0,
2018-10-29, 00:30:06,VALID,917.742,VALID,0.0,VALID,98.382,VALID,-0.02,VALID,19.925,VALID,156.0,VALID,0.0,
2018-10-29, 00:31:06,VALID,917.745,VALID,0.0,VALID,98.432,VALID,-0.034,VALID,19.934,VALID,156.0,VALID,0.0,
2018-10-29, 00:32:06,VALID,917.743,VALID,0.0,VALID,98.443,VALID,-0.029,VALID,19.921,VALID,156.0,VALID,0.0,
2018-10-29, 00:33:06,VALID,917.726,VALID,0.0,VALID,98.495,VALID,-0.014,VALID,19.953,VALID,156.0,VALID,0.0,
2018-10-29, 00:34:06,VALID,917.722,VALID,0.0,VALID,98.612,VALID,-0.021,VALID,20.012,VALID,156.0,VALID,0.0,
2018-10-29, 00:35:06,VALID,917.703,VALID,0.0,VALID,98.659,VALID,-0.004,VALID,20.042,VALID,156.0,VALID,0.0,
2018-10-29, 00:36:06,VALID,917.711,VALID,0.0,VALID,98.666,VALID,-0.004,VALID,20.059,VALID,156.0,VALID,0.0,
2018-10-29, 00:37:06,VALID,917.713,VALID,0.0,VALID,98.608,VALID,-0.015,VALID,20.01,VALID,156.0,VALID,0.0,
2018-10-29, 00:38:06,VALID,917.724,VALID,0.0,VALID,98.365,VALID,-0.025,VALID,19.871,VALID,156.0,VALID,0.0,
2018-10-29, 00:39:06,VALID,917.714,VALID,0.0,VALID,98.426,VALID,0.005,VALID,19.872,VALID,156.0,VALID,0.0,
2018-10-29, 00:40:06,VALID,917.711,VALID,0.0,VALID,98.538,VALID,0.018,VALID,19.925,VALID,156.0,VALID,0.0,
2018-10-29, 00:41:06,VALID,917.726,VALID,0.0,VALID,98.344,VALID,0.028,VALID,19.828,VALID,156.0,VALID,0.0,
2018-10-29, 00:42:06,VALID,917.728,VALID,0.0,VALID,98.396,VALID,0.021,VALID,19.802,VALID,156.0,VALID,0.0,
2018-10-29, 00:43:06,VALID,917.719,VALID,0.0,VALID,98.403,VALID,0.02,VALID,19.775,VALID,156.0,VALID,0.0,
2018-10-29, 00:44:06,VALID,917.728,VALID,0.0,VALID,98.469,VALID,0.028,VALID,19.79,VALID,156.0,VALID,0.0,
2018-10-29, 00:45:06,VALID,917.753,VALID,0.0,VALID,98.447,VALID,0.012,VALID,19.76,VALID,156.0,VALID,0.0,
2018-10-29, 00:46:06,VALID,917.748,VALID,0.0,VALID,98.405,VALID,0.046,VALID,19.72,VALID,152.0,VALID,0.0,
2018-10-29, 00:47:06,VALID,917.749,VALID,0.0,VALID,98.5,VALID,0.022,VALID,19.75,VALID,152.0,VALID,0.0,
2018-10-29, 00:48:06,VALID,917.765,VALID,0.0,VALID,98.494,VALID,0.012,VALID,19.728,VALID,152.0,VALID,0.0,
2018-10-29, 00:49:06,VALID,917.769,VALID,0.0,VALID,98.462,VALID,0.021,VALID,19.681,VALID,152.0,VALID,0.0,
2018-10-29, 00:50:06,VALID,917.767,VALID,0.0,VALID,98.384,VALID,0.034,VALID,19.62,VALID,152.0,VALID,0.0,
2018-10-29, 00:51:06,VALID,917.758,VALID,0.0,VALID,98.433,VALID,0.022,VALID,19.639,VALID,152.0,VALID,0.0,
2018-10-29, 00:52:06,VALID,917.765,VALID,0.0,VALID,98.521,VALID,0.018,VALID,19.691,VALID,152.0,VALID,0.0,
2018-10-29, 00:53:06,VALID,917.781,VALID,0.0,VALID,98.687,VALID,0.019,VALID,19.806,VALID,152.0,VALID,0.0,
2018-10-29, 00:54:06,VALID,917.749,VALID,0.0,VALID,98.68,VALID,-0.022,VALID,19.821,VALID,152.0,VALID,0.0,
2018-10-29, 00:55:06,VALID,917.75,VALID,0.0,VALID,98.65,VALID,-0.038,VALID,19.814,VALID,152.0,VALID,0.0,
2018-10-29, 00:56:06,VALID,917.734,VALID,0.0,VALID,98.488,VALID,-0.019,VALID,19.709,VALID,152.0,VALID,0.0,
2018-10-29, 00:57:06,VALID,917.703,VALID,0.0,VALID,98.49,VALID,-0.029,VALID,19.698,VALID,152.0,VALID,0.0,
2018-10-29, 00:58:06,VALID,917.691,VALID,0.0,VALID,98.412,VALID,-0.043,VALID,19.661,VALID,151.0,VALID,0.0,
2018-10-29, 00:59:06,VALID,917.689,VALID,0.0,VALID,98.319,VALID,-0.041,VALID,19.62,VALID,133.0,VALID,0.0,
2018-10-29, 01:00:06,VALID,917.684,VALID,0.0,VALID,98.368,VALID,-0.023,VALID,19.63,VALID,133.0,VALID,0.0,
2018-10-29, 01:01:06,VALID,917.672,VALID,0.0,VALID,98.325,VALID,-0.035,VALID,19.604,VALID,137.0,VALID,0.0,
2018-10-29, 01:02:06,VALID,917.634,VALID,0.0,VALID,98.324,VALID,-0.029,VALID,19.588,VALID,134.0,VALID,0.0,
2018-10-29, 01:03:06,VALID,917.634,VALID,0.0,VALID,98.451,VALID,-0.024,VALID,19.654,VALID,134.0,VALID,0.0,
2018-10-29, 01:04:06,VALID,917.628,VALID,0.0,VALID,98.417,VALID,-0.023,VALID,19.674,VALID,134.0,VALID,0.0,
2018-10-29, 01:05:06,VALID,917.614,VALID,0.0,VALID,98.44,VALID,-0.011,VALID,19.726,VALID,134.0,VALID,0.0,
2018-10-29, 01:06:06,VALID,917.581,VALID,0.0,VALID,98.5,VALID,-0.026,VALID,19.796,VALID,127.0,VALID,0.0,
2018-10-29, 01:07:06,VALID,917.584,VALID,0.0,VALID,98.495,VALID,-0.015,VALID,19.861,VALID,124.0,VALID,0.0,
2018-10-29, 01:08:06,VALID,917.572,VALID,0.0,VALID,98.479,VALID,-0.018,VALID,19.896,VALID,124.0,VALID,0.0,
2018-10-29, 01:09:06,VALID,917.563,VALID,0.0,VALID,98.378,VALID,-0.011,VALID,19.883,VALID,128.0,VALID,0.0,
2018-10-29, 01:10:06,VALID,917.557,VALID,0.0,VALID,98.354,VALID,-0.012,VALID,19.907,VALID,120.0,VALID,0.0,
2018-10-29, 01:11:06,VALID,917.551,VALID,0.0,VALID,98.339,VALID,-0.005,VALID,19.959,VALID,120.0,VALID,0.0,
2018-10-29, 01:12:06,VALID,917.543,VALID,0.0,VALID,98.244,VALID,-0.039,VALID,19.962,VALID,123.0,VALID,0.0,
2018-10-29, 01:13:06,VALID,917.528,VALID,0.0,VALID,98.077,VALID,-0.029,VALID,19.93,VALID,129.0,VALID,0.0,
2018-10-29, 01:14:06,VALID,917.519,VALID,0.0,VALID,98.062,VALID,-0.022,VALID,19.939,VALID,134.0,VALID,0.0,
2018-10-29, 01:15:06,VALID,917.514,VALID,0.0,VALID,98.052,VALID,-0.026,VALID,19.959,VALID,131.0,VALID,0.0,
2018-10-29, 01:16:06,VALID,917.511,VALID,0.0,VALID,97.997,VALID,-0.03,VALID,19.968,VALID,130.0,VALID,0.0,
2018-10-29, 01:17:06,VALID,917.487,VALID,0.0,VALID,98.013,VALID,-0.017,VALID,19.958,VALID,127.0,VALID,0.0,
2018-10-29, 01:18:06,VALID,917.482,VALID,0.0,VALID,98.034,VALID,-0.017,VALID,19.936,VALID,124.0,VALID,0.0,
2018-10-29, 01:19:06,VALID,917.457,VALID,0.0,VALID,98.084,VALID,-0.024,VALID,19.915,VALID,134.0,VALID,0.0,
2018-10-29, 01:20:06,VALID,917.445,VALID,0.0,VALID,98.106,VALID,-0.015,VALID,19.9,VALID,135.0,VALID,0.0,
2018-10-29, 01:21:06,VALID,917.428,VALID,0.0,VALID,98.102,VALID,-0.025,VALID,19.895,VALID,134.0,VALID,0.0,
2018-10-29, 01:22:06,VALID,917.411,VALID,0.0,VALID,98.163,VALID,-0.006,VALID,19.921,VALID,131.0,VALID,0.0,
2018-10-29, 01:23:06,VALID,917.39,VALID,0.0,VALID,98.175,VALID,-0.01,VALID,19.919,VALID,134.0,VALID,0.0,
2018-10-29, 01:24:06,VALID,917.39,VALID,0.0,VALID,98.176,VALID,-0.004,VALID,19.925,VALID,130.0,VALID,0.0,
2018-10-29, 01:25:06,VALID,917.367,VALID,0.0,VALID,98.112,VALID,-0.016,VALID,19.915,VALID,132.0,VALID,0.0,
2018-10-29, 01:26:06,VALID,917.346,VALID,0.0,VALID,98.132,VALID,-0.005,VALID,19.938,VALID,131.0,VALID,0.0,
2018-10-29, 01:27:06,VALID,917.337,VALID,0.0,VALID,98.097,VALID,-0.001,VALID,19.951,VALID,133.0,VALID,0.0,
2018-10-29, 01:28:06,VALID,917.332,VALID,0.0,VALID,98.047,VALID,-0.005,VALID,19.96,VALID,133.0,VALID,0.0,
2018-10-29, 01:29:06,VALID,917.321,VALID,0.0,VALID,97.974,VALID,-0.009,VALID,19.951,VALID,130.0,VALID,0.0,
2018-10-29, 01:30:06,VALID,917.314,VALID,0.0,VALID,97.915,VALID,-0.026,VALID,19.931,VALID,136.0,VALID,0.0,
2018-10-29, 01:31:06,VALID,917.297,VALID,0.0,VALID,97.862,VALID,-0.034,VALID,19.922,VALID,131.0,VALID,0.0,
2018-10-29, 01:32:06,VALID,917.284,VALID,0.0,VALID,97.89,VALID,-0.008,VALID,19.916,INVALID,360.0,VALID,0.0,
2018-10-29, 01:33:06,VALID,917.27,VALID,0.0,VALID,97.889,VALID,-0.006,VALID,19.902,VALID,122.0,VALID,0.0,
2018-10-29, 01:34:06,VALID,917.272,VALID,0.0,VALID,97.895,VALID,-0.02,VALID,19.892,VALID,138.0,VALID,0.0,
2018-10-29, 01:35:06,VALID,917.275,VALID,0.0,VALID,97.938,VALID,-0.006,VALID,19.882,VALID,131.0,VALID,0.0,
2018-10-29, 01:36:06,VALID,917.255,VALID,0.0,VALID,97.931,VALID,-0.011,VALID,19.87,VALID,133.0,VALID,0.0,
2018-10-29, 01:37:06,VALID,917.237,VALID,0.0,VALID,97.943,VALID,-0.033,VALID,19.869,VALID,139.0,VALID,0.0,
2018-10-29, 01:38:06,VALID,917.247,VALID,0.0,VALID,97.954,VALID,-0.004,VALID,19.887,INVALID,360.0,VALID,0.0,
2018-10-29, 01:39:06,VALID,917.25,VALID,0.0,VALID,97.916,VALID,-0.014,VALID,19.874,VALID,138.0,VALID,0.0,
2018-10-29, 01:40:06,VALID,917.24,VALID,0.0,VALID,97.881,VALID,-0.03,VALID,19.871,INVALID,360.0,VALID,0.0,
2018-10-29, 01:41:06,VALID,917.233,VALID,0.0,VALID,97.876,VALID,-0.02,VALID,19.879,INVALID,360.0,VALID,0.0,
2018-10-29, 01:42:06,VALID,917.237,VALID,0.0,VALID,97.902,VALID,-0.018,VALID,19.887,INVALID,360.0,VALID,0.0,
2018-10-29, 01:43:06,VALID,917.252,VALID,0.0,VALID,97.845,VALID,-0.008,VALID,19.869,INVALID,360.0,VALID,0.0,
2018-10-29, 01:44:06,VALID,917.237,VALID,0.0,VALID,97.734,VALID,0.001,VALID,19.835,INVALID,360.0,VALID,0.0,
2018-10-29, 01:45:06,VALID,917.218,VALID,0.0,VALID,97.526,VALID,0.0,VALID,19.766,INVALID,360.0,VALID,0.0,
2018-10-29, 01:46:06,VALID,917.224,VALID,0.0,VALID,97.43,VALID,-0.019,VALID,19.718,INVALID,360.0,VALID,0.0,
2018-10-29, 01:47:06,VALID,917.206,VALID,0.0,VALID,97.242,VALID,-0.001,VALID,19.635,VALID,82.0,VALID,0.0,
2018-10-29, 01:48:06,VALID,917.2,VALID,0.0,VALID,97.33,VALID,-0.026,VALID,19.595,VALID,77.0,VALID,0.0,
2018-10-29, 01:49:06,VALID,917.177,VALID,0.0,VALID,97.514,VALID,-0.012,VALID,19.577,VALID,77.0,VALID,0.0,
2018-10-29, 01:50:06,VALID,917.158,VALID,0.0,VALID,97.855,VALID,-0.005,VALID,19.613,VALID,77.0,VALID,0.0,
2018-10-29, 01:51:06,VALID,917.138,VALID,0.0,VALID,98.024,VALID,-0.015,VALID,19.638,VALID,77.0,VALID,0.0,
2018-10-29, 01:52:06,VALID,917.139,VALID,0.0,VALID,98.143,VALID,-0.007,VALID,19.657,VALID,77.0,VALID,0.0,
2018-10-29, 01:53:06,VALID,917.129,VALID,0.0,VALID,98.031,VALID,-0.025,VALID,19.59,VALID,77.0,VALID,0.0,
2018-10-29, 01:54:06,VALID,917.107,VALID,0.0,VALID,97.925,VALID,0.0,VALID,19.532,VALID,77.0,VALID,0.0,
2018-10-29, 01:55:06,VALID,917.117,VALID,0.0,VALID,97.892,VALID,0.017,VALID,19.507,VALID,77.0,VALID,0.0,
2018-10-29, 01:56:06,VALID,917.11,VALID,0.0,VALID,98.023,VALID,0.009,VALID,19.53,VALID,77.0,VALID,0.0,
2018-10-29, 01:57:06,VALID,917.112,VALID,0.0,VALID,98.136,VALID,0.001,VALID,19.559,VALID,77.0,VALID,0.0,
2018-10-29, 01:58:06,VALID,917.076,VALID,0.0,VALID,98.254,VALID,0.019,VALID,19.6,VALID,77.0,VALID,0.0,
2018-10-29, 01:59:06,VALID,917.065,VALID,0.0,VALID,98.304,VALID,0.022,VALID,19.609,VALID,77.0,VALID,0.0,
2018-10-29, 02:00:06,VALID,917.033,VALID,0.0,VALID,98.327,VALID,0.018,VALID,19.604,VALID,77.0,VALID,0.0,
2018-10-29, 02:01:06,VALID,917.01,VALID,0.0,VALID,98.383,VALID,-0.001,VALID,19.608,VALID,77.0,VALID,0.0,
2018-10-29, 02:02:06,VALID,916.992,VALID,0.0,VALID,98.44,VALID,-0.003,VALID,19.625,VALID,77.0,VALID,0.0,
2018-10-29, 02:03:06,VALID,916.956,VALID,0.0,VALID,98.269,VALID,0.004,VALID,19.547,VALID,77.0,VALID,0.0,
2018-10-29, 02:04:06,VALID,916.944,VALID,0.0,VALID,98.368,VALID,-0.003,VALID,19.574,VALID,77.0,VALID,0.0,
2018-10-29, 02:05:06,VALID,916.924,VALID,0.0,VALID,98.56,VALID,0.002,VALID,19.663,VALID,77.0,VALID,0.0,
2018-10-29, 02:06:06,VALID,916.916,VALID,0.0,VALID,98.554,VALID,0.018,VALID,19.666,VALID,77.0,VALID,0.0,
2018-10-29, 02:07:06,VALID,916.912,VALID,0.0,VALID,98.556,VALID,0.027,VALID,19.657,VALID,79.0,VALID,0.0,
2018-10-29, 02:08:06,VALID,916.879,VALID,0.0,VALID,98.537,VALID,0.019,VALID,19.655,VALID,73.0,VALID,0.0,
2018-10-29, 02:09:06,VALID,916.866,VALID,0.0,VALID,98.454,VALID,-0.013,VALID,19.594,VALID,65.0,VALID,0.0,
2018-10-29, 02:10:06,VALID,916.851,VALID,0.0,VALID,98.393,VALID,-0.018,VALID,19.545,VALID,73.0,VALID,0.0,
2018-10-29, 02:11:06,VALID,916.856,VALID,0.0,VALID,98.436,VALID,-0.019,VALID,19.575,VALID,76.0,VALID,0.0,
2018-10-29, 02:12:06,VALID,916.829,VALID,0.0,VALID,98.441,VALID,-0.006,VALID,19.588,VALID,71.0,VALID,0.0,
2018-10-29, 02:13:06,VALID,916.821,VALID,0.0,VALID,98.42,VALID,-0.005,VALID,19.598,VALID,71.0,VALID,0.0,
2018-10-29, 02:14:06,VALID,916.805,VALID,0.0,VALID,98.408,VALID,-0.012,VALID,19.633,VALID,76.0,VALID,0.0,
2018-10-29, 02:15:06,VALID,916.783,VALID,0.0,VALID,98.244,VALID,-0.008,VALID,19.654,VALID,91.0,VALID,0.0,
2018-10-29, 02:16:06,VALID,916.769,VALID,0.0,VALID,97.99,VALID,-0.02,VALID,19.636,VALID,82.0,VALID,0.0,
2018-10-29, 02:17:06,VALID,916.765,VALID,0.0,VALID,97.727,VALID,-0.016,VALID,19.607,VALID,84.0,VALID,0.0,
2018-10-29, 02:18:06,VALID,916.734,VALID,0.0,VALID,97.654,VALID,-0.005,VALID,19.654,VALID,82.0,VALID,0.0,
2018-10-29, 02:19:06,VALID,916.729,VALID,0.0,VALID,97.531,VALID,-0.002,VALID,19.685,VALID,90.0,VALID,0.0,
2018-10-29, 02:20:06,VALID,916.701,VALID,0.0,VALID,97.427,VALID,-0.017,VALID,19.704,VALID,101.0,VALID,0.0,
2018-10-29, 02:21:06,VALID,916.691,VALID,0.0,VALID,97.299,VALID,-0.031,VALID,19.724,VALID,95.0,VALID,0.0,
2018-10-29, 02:22:06,VALID,916.679,VALID,0.0,VALID,97.107,VALID,-0.023,VALID,19.714,VALID,89.0,VALID,0.0,
2018-10-29, 02:23:06,VALID,916.672,VALID,0.0,VALID,97.075,VALID,-0.003,VALID,19.704,VALID,97.0,VALID,0.0,
2018-10-29, 02:24:06,VALID,916.659,VALID,0.0,VALID,97.081,VALID,-0.018,VALID,19.682,VALID,99.0,VALID,0.0,
2018-10-29, 02:25:06,VALID,916.627,VALID,0.0,VALID,97.012,VALID,-0.028,VALID,19.643,VALID,104.0,VALID,0.0,
2018-10-29, 02:26:06,VALID,916.625,VALID,0.0,VALID,97.048,VALID,-0.01,VALID,19.618,VALID,101.0,VALID,0.0,
2018-10-29, 02:27:06,VALID,916.597,VALID,0.0,VALID,97.032,VALID,-0.028,VALID,19.598,VALID,111.0,VALID,0.0,
2018-10-29, 02:28:06,VALID,916.581,VALID,0.0,VALID,97.135,VALID,-0.031,VALID,19.602,VALID,109.0,VALID,0.0,
2018-10-29, 02:29:06,VALID,916.564,VALID,0.0,VALID,97.209,VALID,-0.023,VALID,19.592,VALID,113.0,VALID,0.0,
2018-10-29, 02:30:06,VALID,916.54,VALID,0.0,VALID,97.292,VALID,-0.026,VALID,19.585,VALID,98.0,VALID,0.0,
2018-10-29, 02:31:06,VALID,916.523,VALID,0.0,VALID,97.177,VALID,-0.017,VALID,19.57,VALID,100.0,VALID,0.0,
2018-10-29, 02:32:06,VALID,916.485,VALID,0.0,VALID,97.08,VALID,-0.025,VALID,19.57,VALID,116.0,VALID,0.0,
2018-10-29, 02:33:06,VALID,916.468,VALID,0.0,VALID,97.105,VALID,-0.025,VALID,19.599,VALID,119.0,VALID,0.0,
2018-10-29, 02:34:06,VALID,916.44,VALID,0.0,VALID,97.032,VALID,-0.031,VALID,19.622,VALID,116.0,VALID,0.0,
2018-10-29, 02:35:06,VALID,916.43,VALID,0.0,VALID,96.868,VALID,-0.009,VALID,19.646,VALID,119.0,VALID,0.0,
2018-10-29, 02:36:06,VALID,916.412,VALID,0.0,VALID,96.678,VALID,0.006,VALID,19.68,VALID,121.0,VALID,0.0,
2018-10-29, 02:37:06,VALID,916.393,VALID,0.0,VALID,96.304,VALID,-0.003,VALID,19.733,VALID,126.0,VALID,0.0,
2018-10-29, 02:38:06,VALID,916.393,VALID,0.0,VALID,95.864,VALID,-0.001,VALID,19.766,VALID,118.0,VALID,0.0,
2018-10-29, 02:39:06,VALID,916.389,VALID,0.0,VALID,95.388,VALID,-0.003,VALID,19.821,VALID,120.0,VALID,0.0,
2018-10-29, 02:40:06,VALID,916.389,VALID,0.0,VALID,95.002,VALID,-0.006,VALID,19.873,VALID,128.0,VALID,0.0,
2018-10-29, 02:41:06,VALID,916.375,VALID,0.0,VALID,94.687,VALID,-0.009,VALID,19.918,VALID,122.0,VALID,0.0,
2018-10-29, 02:42:06,VALID,916.38,VALID,0.0,VALID,94.386,VALID,-0.009,VALID,19.937,VALID,123.0,VALID,0.0,
2018-10-29, 02:43:06,VALID,916.353,VALID,0.0,VALID,93.958,VALID,-0.003,VALID,19.946,VALID,115.0,VALID,0.0,
2018-10-29, 02:44:06,VALID,916.347,VALID,0.0,VALID,93.739,VALID,-0.012,VALID,19.984,VALID,121.0,VALID,0.0,
2018-10-29, 02:45:06,VALID,916.36,VALID,0.0,VALID,93.564,VALID,0.003,VALID,20.0,VALID,117.0,VALID,0.0,
2018-10-29, 02:46:06,VALID,916.336,VALID,0.0,VALID,93.133,VALID,-0.018,VALID,20.043,VALID,122.0,VALID,0.0,
2018-10-29, 02:47:06,VALID,916.343,VALID,0.0,VALID,92.999,VALID,-0.02,VALID,20.065,VALID,120.0,VALID,0.0,
2018-10-29, 02:48:06,VALID,916.348,VALID,0.0,VALID,93.136,VALID,-0.007,VALID,20.07,VALID,124.0,VALID,0.0,
2018-10-29, 02:49:06,VALID,916.347,VALID,0.0,VALID,93.153,VALID,-0.014,VALID,20.065,VALID,122.0,VALID,0.0,
2018-10-29, 02:50:06,VALID,916.339,VALID,0.0,VALID,93.16,VALID,-0.011,VALID,20.052,VALID,117.0,VALID,0.0,
2018-10-29, 02:51:06,VALID,916.331,VALID,0.0,VALID,93.087,VALID,-0.013,VALID,20.04,VALID,125.0,VALID,0.0,
2018-10-29, 02:52:06,VALID,916.32,VALID,0.0,VALID,93.017,VALID,-0.011,VALID,20.031,VALID,119.0,VALID,0.0,
2018-10-29, 02:53:06,VALID,916.312,VALID,0.0,VALID,92.828,VALID,0.007,VALID,20.046,INVALID,360.0,VALID,0.0,
2018-10-29, 02:54:06,VALID,916.304,VALID,0.0,VALID,92.699,VALID,-0.009,VALID,20.037,VALID,104.0,VALID,0.0,
2018-10-29, 02:55:06,VALID,916.292,VALID,0.0,VALID,92.777,VALID,0.003,VALID,20.023,VALID,115.0,VALID,0.0,
2018-10-29, 02:56:06,VALID,916.282,VALID,0.0,VALID,92.909,VALID,-0.011,VALID,19.999,VALID,109.0,VALID,0.0,
2018-10-29, 02:57:06,VALID,916.27,VALID,0.0,VALID,93.08,VALID,0.004,VALID,19.966,VALID,122.0,VALID,0.0,
2018-10-29, 02:58:06,VALID,916.259,VALID,0.0,VALID,93.447,VALID,0.009,VALID,19.925,VALID,122.0,VALID,0.0,
2018-10-29, 02:59:06,VALID,916.245,VALID,0.0,VALID,94.318,VALID,-0.005,VALID,19.885,VALID,122.0,VALID,0.0,
2018-10-29, 03:00:06,VALID,916.215,VALID,0.0,VALID,95.169,VALID,-0.004,VALID,19.812,VALID,122.0,VALID,0.0,
2018-10-29, 03:01:06,VALID,916.178,VALID,0.0,VALID,95.697,VALID,-0.002,VALID,19.745,VALID,122.0,VALID,0.0,
2018-10-29, 03:02:06,VALID,916.168,VALID,0.0,VALID,95.933,VALID,-0.003,VALID,19.699,VALID,122.0,VALID,0.0,
2018-10-29, 03:03:06,VALID,916.17,VALID,0.0,VALID,96.111,VALID,-0.018,VALID,19.659,VALID,122.0,VALID,0.0,
2018-10-29, 03:04:06,VALID,916.16,VALID,0.0,VALID,96.346,VALID,-0.002,VALID,19.616,VALID,122.0,VALID,0.0,
2018-10-29, 03:05:06,VALID,916.151,VALID,0.0,VALID,96.524,VALID,-0.008,VALID,19.569,VALID,122.0,VALID,0.0,
2018-10-29, 03:06:06,VALID,916.148,VALID,0.0,VALID,96.747,VALID,0.017,VALID,19.526,VALID,122.0,VALID,0.0,
2018-10-29, 03:07:06,VALID,916.138,VALID,0.0,VALID,96.953,VALID,0.013,VALID,19.492,VALID,122.0,VALID,0.0,
2018-10-29, 03:08:06,VALID,916.123,VALID,0.0,VALID,97.065,VALID,-0.007,VALID,19.455,VALID,122.0,VALID,0.0,
2018-10-29, 03:09:06,VALID,916.099,VALID,0.0,VALID,97.018,VALID,-0.005,VALID,19.409,VALID,129.0,VALID,0.0,
2018-10-29, 03:10:06,VALID,916.092,VALID,0.0,VALID,97.04,VALID,-0.028,VALID,19.364,VALID,145.0,VALID,0.0,
2018-10-29, 03:11:06,VALID,916.074,VALID,0.0,VALID,97.029,VALID,-0.005,VALID,19.296,VALID,130.0,VALID,0.0,
2018-10-29, 03:12:06,VALID,916.045,VALID,0.0,VALID,97.159,VALID,0.016,VALID,19.24,VALID,135.0,VALID,0.0,
2018-10-29, 03:13:06,VALID,916.039,VALID,0.0,VALID,97.252,VALID,0.022,VALID,19.191,VALID,130.0,VALID,0.0,
2018-10-29, 03:14:06,VALID,916.024,VALID,0.0,VALID,97.316,VALID,0.026,VALID,19.197,VALID,123.0,VALID,0.0,
2018-10-29, 03:15:06,VALID,916.015,VALID,0.0,VALID,97.283,VALID,0.045,VALID,19.233,VALID,125.0,VALID,0.0,
2018-10-29, 03:16:06,VALID,915.997,VALID,0.0,VALID,97.171,VALID,0.026,VALID,19.277,VALID,125.0,VALID,0.0,
2018-10-29, 03:17:06,VALID,916.003,VALID,0.0,VALID,96.89,VALID,0.03,VALID,19.288,VALID,118.0,VALID,0.0,
2018-10-29, 03:18:06,VALID,915.98,VALID,0.0,VALID,96.653,VALID,0.024,VALID,19.301,VALID,117.0,VALID,0.0,
2018-10-29, 03:19:06,VALID,916.007,VALID,0.0,VALID,96.697,VALID,0.032,VALID,19.345,VALID,119.0,VALID,0.0,
2018-10-29, 03:20:06,VALID,915.982,VALID,0.0,VALID,96.638,VALID,0.01,VALID,19.383,VALID,117.0,VALID,0.0,
2018-10-29, 03:21:06,VALID,915.982,VALID,0.0,VALID,96.335,VALID,0.007,VALID,19.366,VALID,103.0,VALID,0.0,
2018-10-29, 03:22:06,VALID,915.972,VALID,0.0,VALID,96.163,VALID,0.01,VALID,19.355,VALID,98.0,VALID,0.0,
2018-10-29, 03:23:06,VALID,915.953,VALID,0.0,VALID,95.899,VALID,0.009,VALID,19.31,VALID,93.0,VALID,0.0,
2018-10-29, 03:24:06,VALID,915.946,VALID,0.0,VALID,95.971,VALID,-0.038,VALID,19.281,VALID,89.0,VALID,0.0,
2018-10-29, 03:25:06,VALID,915.923,VALID,0.0,VALID,96.238,VALID,-0.066,VALID,19.281,VALID,89.0,VALID,0.0,
2018-10-29, 03:26:06,VALID,915.926,VALID,0.0,VALID,96.331,VALID,-0.05,VALID,19.27,VALID,89.0,VALID,0.0,
2018-10-29, 03:27:06,VALID,915.917,VALID,0.0,VALID,96.286,VALID,-0.055,VALID,19.248,VALID,89.0,VALID,0.0,
2018-10-29, 03:28:06,VALID,915.933,VALID,0.0,VALID,96.239,VALID,-0.053,VALID,19.22,VALID,99.0,VALID,0.0,
2018-10-29, 03:29:06,VALID,915.921,VALID,0.0,VALID,96.562,VALID,-0.054,VALID,19.243,VALID,123.0,VALID,0.0,
2018-10-29, 03:30:06,VALID,915.927,VALID,0.0,VALID,96.881,VALID,-0.049,VALID,19.26,INVALID,360.0,VALID,0.0,
2018-10-29, 03:31:06,VALID,915.917,VALID,0.0,VALID,97.208,VALID,-0.047,VALID,19.303,VALID,149.0,VALID,0.0,
2018-10-29, 03:32:06,VALID,915.911,VALID,0.0,VALID,97.323,VALID,-0.068,VALID,19.306,INVALID,360.0,VALID,0.0,
2018-10-29, 03:33:06,VALID,915.915,VALID,0.0,VALID,97.28,VALID,-0.057,VALID,19.267,VALID,139.0,VALID,0.0,
2018-10-29, 03:34:06,VALID,915.897,VALID,0.0,VALID,97.154,VALID,-0.061,VALID,19.2,INVALID,360.0,VALID,0.0,
2018-10-29, 03:35:07,VALID,915.864,VALID,0.0,VALID,97.327,VALID,-0.043,VALID,19.194,VALID,119.0,VALID,0.0,
2018-10-29, 03:36:07,VALID,915.857,VALID,0.0,VALID,97.476,VALID,-0.056,VALID,19.189,INVALID,360.0,VALID,0.0,
2018-10-29, 03:37:07,VALID,915.835,VALID,0.0,VALID,97.622,VALID,-0.062,VALID,19.168,INVALID,360.0,VALID,0.0,
2018-10-29, 03:38:07,VALID,915.827,VALID,0.0,VALID,97.694,VALID,-0.051,VALID,19.128,INVALID,360.0,VALID,0.0,
2018-10-29, 03:39:07,VALID,915.802,VALID,0.0,VALID,97.845,VALID,-0.003,VALID,19.13,VALID,130.0,VALID,0.0,
2018-10-29, 03:40:07,VALID,915.81,VALID,0.0,VALID,97.979,VALID,0.006,VALID,19.114,VALID,144.0,VALID,0.0,
2018-10-29, 03:41:07,VALID,915.791,VALID,0.0,VALID,98.17,VALID,0.013,VALID,19.144,INVALID,360.0,VALID,0.0,